Snowfall_Accumulation
0.0 0.0 0.0 0.0 0.0 0.0 0.0 0.0 0.9 2.0 0.1 0.0 0.0 0.0 0.0 0.0 0.0 0.0 0.0 nan nan nan nan nan nan nan nan nan nan nan nan nan nan nan nan nan nan nan
0.0 0.0 0.0 0.0 0.0 0.0 0.0 0.0 0.0 0.2 0.7 0.0 0.0 0.0 0.0 0.0 0.0 0.0 0.0 nan nan nan nan nan nan nan nan nan nan nan nan nan nan nan nan nan nan nan
0.0 0.0 0.0 0.0 0.0 0.0 0.0 0.0 0.0 0.0 0.0 0.0 0.0 0.0 0.0 0.0 0.0 0.0 0.0 0.0 0.0 nan nan nan nan nan nan nan nan nan nan nan nan nan nan nan nan nan
0.0 0.0 0.0 0.0 0.0 0.0 0.0 0.0 0.0 0.0 0.0 0.0 0.0 0.0 0.0 0.0 0.0 0.0 0.0 0.0 0.0 nan nan nan nan nan nan nan nan nan nan nan nan nan nan nan nan nan
0.0 0.0 0.0 0.0 0.0 0.0 0.0 0.0 0.0 0.0 0.0 0.3 0.0 0.0 0.0 0.0 0.0 0.0 0.0 0.0 0.0 nan nan nan nan nan nan nan nan nan nan nan nan nan nan nan nan nan
0.0 0.0 0.0 0.0 0.0 0.0 0.0 0.0 0.0 0.0 0.0 0.0 0.0 0.0 0.0 0.0 0.0 0.0 0.0 0.0 0.0 0.0 nan nan nan nan nan nan nan nan nan nan nan nan nan nan nan nan
0.0 0.0 0.0 nan nan nan 0.0 0.0 0.0 0.2 0.2 0.3 0.2 0.2 0.0 0.0 0.0 0.0 0.0 0.0 0.0 0.0 0.0 0.0 0.0 0.0 0.0 nan nan nan nan nan nan nan nan nan nan nan
0.0 0.0 0.0 0.0 0.0 nan nan nan nan 0.4 0.4 0.3 0.1 0.2 0.0 0.1 0.1 0.2 0.0 0.0 0.1 0.1 0.0 0.3 0.0 0.0 0.0 0.0 nan nan nan nan nan nan nan nan nan nan
0.0 0.0 0.0 0.0 nan 0.0 nan nan nan nan 0.1 0.6 0.5 0.1 0.1 0.0 0.0 0.0 0.0 0.0 0.0 0.0 0.1 0.5 0.5 0.4 0.1 0.0 nan nan nan nan nan nan nan nan nan nan
0.0 0.0 0.0 0.0 0.0 0.0 0.3 0.5 0.0 0.0 0.0 0.0 0.2 0.2 0.1 0.0 0.1 0.0 0.0 0.1 0.2 0.0 0.0 2.0 0.9 1.2 0.7 0.3 nan nan nan nan nan nan nan nan nan nan
0.0 0.0 0.0 0.0 nan nan 0.6 0.9 0.2 0.0 nan nan nan nan nan nan nan 1.4 1.9 2.4 4.6 0.3 0.2 0.7 1.3 1.5 1.1 1.0 0.7 nan nan nan nan nan nan nan nan nan
0.3 0.1 nan 0.1 nan nan 1.6 1.5 1.7 0.2 0.0 0.0 0.0 0.0 nan nan nan 0.0 0.4 2.1 1.8 2.0 0.4 1.0 0.4 0.9 2.6 1.5 0.9 1.0 0.8 nan nan nan nan nan nan 0.2
1.4 1.1 0.8 nan nan nan nan 1.8 1.6 0.3 0.3 0.4 0.1 0.1 0.0 0.0 0.0 0.0 0.0 0.5 1.4 0.9 0.0 0.1 0.9 0.7 1.2 1.6 1.8 1.5 1.1 1.6 1.1 0.7 nan nan nan 0.3
1.8 1.5 2.3 nan nan nan 1.0 nan nan 0.6 4.8 4.1 2.9 1.8 1.5 1.2 0.1 0.3 0.3 0.1 0.0 0.1 0.0 0.1 2.2 0.6 1.0 1.9 1.9 1.7 1.8 2.1 1.9 2.0 1.7 nan nan nan
3.9 3.4 nan nan nan 1.3 nan nan 0.6 4.5 5.3 5.8 3.3 1.8 1.6 0.8 0.7 1.3 0.6 0.4 0.3 0.5 0.4 0.6 1.7 0.5 1.3 1.8 1.8 2.3 2.5 2.3 3.0 3.3 3.0 2.1 1.7 1.2
0.9 3.1 0.8 2.3 0.9 1.4 2.5 2.9 3.5 4.5 4.6 4.3 2.8 1.6 1.5 2.4 2.8 2.2 2.7 3.4 3.4 2.8 1.3 0.7 0.5 0.5 2.9 1.4 1.0 2.3 1.9 3.3 2.5 2.6 3.1 3.7 2.2 1.7
4.2 7.8 4.9 3.8 3.9 2.8 3.1 2.9 2.7 2.7 3.7 4.5 4.2 3.1 2.4 2.2 2.8 2.9 2.5 2.3 4.2 2.8 2.4 2.0 1.0 1.3 1.7 1.2 5.3 1.5 1.7 1.7 1.6 2.7 3.0 2.5 2.3 2.6
4.6 6.7 12.5 13.4 8.3 4.2 5.8 4.7 4.1 3.4 3.1 3.6 5.1 3.4 3.3 3.7 3.2 3.5 3.0 3.3 3.8 2.9 2.2 1.6 2.1 3.4 3.2 4.4 2.4 1.6 1.2 1.5 1.5 1.8 2.4 3.7 1.9 1.8
7.0 7.3 15.0 16.9 10.2 3.7 4.1 4.1 5.7 5.4 2.5 3.9 4.9 5.7 5.6 4.2 5.1 4.2 4.9 4.4 4.8 2.9 2.1 4.1 3.4 3.4 4.2 7.0 2.8 nan 2.9 1.8 4.5 5.1 3.1 3.6 2.9 2.2
4.1 7.0 10.2 10.7 5.3 3.6 3.8 4.8 5.4 7.3 7.4 5.9 7.7 10.4 12.0 8.3 7.3 4.7 4.0 6.0 4.2 2.7 2.4 1.4 2.2 2.6 3.3 7.2 12.2 10.5 nan 7.7 6.5 6.6 4.7 3.8 3.3 nan
4.2 3.7 7.9 5.3 5.5 4.2 12.9 13.8 17.0 15.6 15.8 18.5 10.9 10.5 21.8 6.1 7.3 5.2 5.7 4.4 3.6 2.2 2.4 2.4 2.4 0.3 2.2 5.7 21.7 11.6 11.4 nan 5.2 4.9 3.9 4.6 3.3 2.1
7.3 4.5 4.8 4.9 7.9 7.4 15.4 22.7 20.8 20.7 15.1 11.0 19.9 27.4 25.1 11.7 10.1 8.8 10.8 10.7 4.1 4.9 2.9 2.3 1.5 1.1 3.7 2.9 3.7 15.1 6.7 7.4 nan nan nan nan 4.7 5.1
13.8 5.5 8.3 10.4 8.5 10.4 6.0 12.7 6.0 26.7 11.2 11.3 10.7 11.3 43.7 14.5 8.1 8.6 8.6 6.2 4.2 4.6 3.3 3.3 1.9 1.5 2.3 2.1 3.5 6.5 5.6 9.3 4.2 4.3 8.8 nan nan nan
Water_Equivalent
0.00 0.00 0.00 0.00 0.00 0.00 0.00 0.00 0.15 0.30 0.02 0.00 0.00 0.00 0.00 0.00 0.00 0.00 0.00 nan nan nan nan nan nan nan nan nan nan nan nan nan nan nan nan nan nan nan
0.00 0.00 0.00 0.00 0.00 0.00 0.00 0.00 0.00 0.04 0.09 0.00 0.00 0.00 0.00 0.00 0.00 0.00 0.00 nan nan nan nan nan nan nan nan nan nan nan nan nan nan nan nan nan nan nan
0.00 0.00 0.00 0.00 0.00 0.00 0.00 0.00 0.00 0.00 0.00 0.00 0.00 0.00 0.00 0.00 0.00 0.00 0.00 0.00 0.00 nan nan nan nan nan nan nan nan nan nan nan nan nan nan nan nan nan
0.00 0.00 0.00 0.00 0.00 0.00 0.00 0.00 0.00 0.00 0.00 0.00 0.00 0.00 0.00 0.00 0.00 0.00 0.00 0.00 0.00 nan nan nan nan nan nan nan nan nan nan nan nan nan nan nan nan nan
0.00 0.00 0.00 0.00 0.00 0.00 0.00 0.00 0.00 0.00 0.01 0.03 0.00 0.00 0.00 0.00 0.00 0.00 0.00 0.00 0.00 nan nan nan nan nan nan nan nan nan nan nan nan nan nan nan nan nan
0.00 0.00 0.00 0.00 0.00 0.00 0.00 0.00 0.00 0.01 0.00 0.00 0.00 0.01 0.00 0.00 0.00 0.00 0.00 0.00 0.00 0.00 nan nan nan nan nan nan nan nan nan nan nan nan nan nan nan nan
0.00 0.00 0.00 nan nan nan 0.00 0.00 0.01 0.02 0.03 0.04 0.02 0.02 0.01 0.00 0.00 0.00 0.00 0.00 0.00 0.00 0.00 0.00 0.00 0.00 0.00 nan nan nan nan nan nan nan nan nan nan nan
0.00 0.00 0.00 0.00 0.00 nan nan nan nan 0.06 0.04 0.04 0.01 0.02 0.01 0.02 0.01 0.02 0.00 0.00 0.03 0.02 0.01 0.07 0.00 0.00 0.00 0.00 nan nan nan nan nan nan nan nan nan nan
0.00 0.00 0.00 0.00 nan 0.00 nan nan nan nan 0.03 0.08 0.07 0.01 0.01 0.00 0.00 0.00 0.00 0.01 0.00 0.00 0.04 0.13 0.12 0.10 0.03 0.00 nan nan nan nan nan nan nan nan nan nan
0.00 0.00 0.00 0.00 0.00 0.00 0.04 0.06 0.01 0.00 0.00 0.00 0.03 0.02 0.01 0.00 0.01 0.00 0.00 0.01 0.05 0.00 0.00 0.39 0.24 0.28 0.16 0.07 nan nan nan nan nan nan nan nan nan nan
0.00 0.00 0.01 0.00 nan nan 0.08 0.13 0.02 0.00 nan nan nan nan nan nan nan 0.21 0.34 0.39 0.74 0.08 0.07 0.15 0.28 0.32 0.26 0.28 0.24 nan nan nan nan nan nan nan nan nan
0.05 0.02 nan 0.01 nan nan 0.23 0.21 0.23 0.03 0.00 0.00 0.00 0.00 nan nan nan 0.00 0.07 0.34 0.31 0.30 0.09 0.18 0.07 0.16 0.45 0.31 0.23 0.28 0.25 nan nan nan nan nan nan 0.07
0.24 0.20 0.15 nan nan nan nan 0.27 0.22 0.04 0.05 0.07 0.02 0.01 0.01 0.00 0.00 0.00 0.00 0.09 0.25 0.15 0.00 0.01 0.14 0.12 0.19 0.27 0.36 0.32 0.26 0.42 0.35 0.25 nan nan nan 0.08
0.28 0.25 0.37 nan nan nan 0.21 nan nan 0.10 0.77 0.65 0.47 0.30 0.26 0.22 0.02 0.04 0.04 0.01 0.00 0.02 0.00 0.01 0.34 0.10 0.15 0.31 0.29 0.31 0.34 0.43 0.40 0.48 0.46 nan nan nan
0.63 0.52 nan nan nan 0.44 nan nan 0.18 0.70 0.82 0.88 0.52 0.29 0.25 0.12 0.10 0.21 0.10 0.07 0.06 0.08 0.06 0.09 0.30 0.07 0.23 0.27 0.28 0.37 0.40 0.42 0.56 0.63 0.61 0.44 0.35 0.29
0.22 0.50 0.27 0.44 0.29 0.33 0.47 0.48 0.58 0.70 0.68 0.64 0.43 0.25 0.25 0.40 0.46 0.37 0.44 0.54 0.54 0.45 0.26 0.15 0.10 0.09 0.48 0.23 0.16 0.35 0.30 0.51 0.44 0.49 0.60 0.70 0.44 0.37
0.70 1.12 0.66 0.50 0.50 0.42 0.49 0.47 0.44 0.44 0.57 0.70 0.66 0.49 0.40 0.35 0.45 0.50 0.41 0.37 0.64 0.42 0.37 0.34 0.19 0.25 0.32 0.20 0.78 0.24 0.28 0.28 0.27 0.44 0.53 0.42 0.42 0.49
0.60 0.82 1.49 1.62 0.96 0.52 0.73 0.64 0.59 0.54 0.45 0.55 0.80 0.54 0.53 0.61 0.53 0.58 0.51 0.52 0.55 0.44 0.35 0.26 0.36 0.54 0.50 0.68 0.41 0.25 0.19 0.25 0.25 0.29 0.41 0.57 0.30 0.31
0.86 0.84 1.57 1.83 1.12 0.44 0.49 0.50 0.69 0.72 0.35 0.58 0.74 0.87 0.87 0.66 0.79 0.70 0.81 0.71 0.73 0.43 0.31 0.64 0.53 0.52 0.55 0.84 0.41 nan 0.45 0.29 0.68 0.76 0.49 0.57 0.46 0.36
0.48 0.78 1.09 1.13 0.58 0.41 0.43 0.50 0.60 0.89 0.89 0.75 1.05 1.41 1.57 1.10 1.06 0.69 0.63 0.87 0.63 0.41 0.37 0.23 0.36 0.42 0.50 0.97 1.74 1.39 nan 1.10 0.95 0.94 0.66 0.60 0.53 nan
0.47 0.42 0.90 0.58 0.59 0.46 1.37 1.48 1.85 1.70 1.74 2.19 1.34 1.32 2.92 0.86 0.98 0.75 0.81 0.76 0.68 0.32 0.34 0.34 0.35 0.11 0.32 0.82 3.07 1.55 1.48 nan 0.81 0.72 0.56 0.67 0.47 0.30
0.82 0.50 0.55 0.58 0.86 0.76 1.65 2.54 2.32 2.32 1.66 1.24 2.25 3.34 3.12 1.42 1.18 1.00 1.26 1.24 0.55 0.67 0.38 0.31 0.22 0.17 0.57 0.41 0.50 2.06 0.88 0.99 nan nan nan nan 0.66 0.68
1.44 0.62 0.95 1.21 1.05 1.25 0.69 1.39 0.65 3.04 1.22 1.22 1.17 1.24 5.42 1.59 0.95 1.01 1.12 0.80 0.56 0.60 0.45 0.44 0.27 0.22 0.32 0.27 0.47 0.83 0.68 1.23 0.57 0.57 1.11 nan nan nan
SL_Ratio
nan nan nan nan nan nan nan 5.7 5.7 6.6 7.2 nan nan nan nan nan nan nan nan nan nan nan nan nan nan nan nan nan nan nan nan nan nan nan nan nan nan nan
nan nan nan nan nan nan nan nan nan 5.9 7.2 0.0 nan nan nan nan nan nan nan nan nan nan nan nan nan nan nan nan nan nan nan nan nan nan nan nan nan nan
nan nan nan nan nan nan nan nan nan nan 6.7 nan nan nan nan nan nan nan nan nan nan nan nan nan nan nan nan nan nan nan nan nan nan nan nan nan nan nan
nan nan nan nan nan nan nan nan nan nan nan 10.0 nan nan nan nan nan nan nan nan nan nan nan nan nan nan nan nan nan nan nan nan nan nan nan nan nan nan
nan nan nan nan nan nan nan nan nan 10.0 7.2 8.0 8.6 nan nan nan nan nan nan nan nan nan nan nan nan nan nan nan nan nan nan nan nan nan nan nan nan nan
nan nan nan nan nan nan 10.0 7.5 7.8 7.8 8.0 8.0 8.6 7.5 10.0 nan nan 10.0 nan nan nan nan nan nan nan nan nan nan nan nan nan nan nan nan nan nan nan nan
nan nan nan nan nan nan 7.5 10.0 7.1 7.8 8.1 8.1 8.1 7.9 7.9 7.5 8.0 7.5 7.5 nan nan nan nan nan nan nan nan nan nan nan nan nan nan nan nan nan nan nan
10.0 nan nan nan nan nan nan nan nan 7.7 8.3 8.6 8.6 8.7 8.2 8.5 8.3 8.3 8.5 nan 4.2 3.3 3.5 3.8 nan nan nan nan nan nan nan nan nan nan nan nan nan nan
10.0 nan nan nan nan nan nan nan nan nan 3.1 7.8 8.1 8.3 8.3 nan nan nan 5.0 5.0 5.0 3.0 3.2 3.9 3.8 3.7 3.7 nan nan nan nan nan nan nan nan nan nan nan
nan nan 10.0 10.0 10.0 7.3 7.9 7.9 8.1 7.5 10.0 6.7 7.6 7.6 7.9 7.3 7.4 nan 6.7 6.8 4.9 10.0 3.8 5.1 3.9 4.5 4.0 3.9 nan nan nan nan nan nan nan nan nan nan
nan nan 7.5 8.2 nan nan 7.1 6.8 6.6 10.0 nan nan nan nan nan nan nan 6.6 5.8 6.2 6.2 3.8 3.5 4.4 4.6 4.6 4.1 3.6 2.9 nan nan nan nan nan nan nan nan nan
5.5 5.4 nan 7.8 nan nan 7.0 7.0 7.3 7.2 7.5 8.0 5.0 4.4 nan nan nan nan 5.5 6.2 5.9 6.8 4.5 5.3 5.0 5.6 5.8 4.7 4.0 3.4 3.0 nan nan nan nan nan nan 3.2
6.0 5.7 5.5 nan nan nan nan 6.7 7.4 7.8 6.1 5.9 7.0 6.7 7.9 7.9 0.0 nan 10.0 5.1 5.5 5.6 nan 5.3 5.9 5.6 6.1 6.1 4.8 4.5 4.3 3.9 3.2 2.8 nan nan nan 3.2
6.5 6.0 6.3 nan nan nan 4.9 nan nan 5.6 6.2 6.3 6.2 5.9 5.8 5.6 7.6 6.9 6.7 7.1 8.0 4.9 5.0 5.3 6.5 6.1 6.5 6.3 6.6 5.4 5.2 4.9 4.6 4.2 3.7 nan nan nan
6.2 6.5 nan nan nan 3.0 nan nan 3.0 6.4 6.5 6.7 6.4 6.2 6.4 6.9 7.0 6.2 6.3 5.9 5.6 5.5 6.0 6.0 5.6 6.1 5.7 6.5 6.6 6.3 6.2 5.5 5.3 5.2 5.0 4.9 4.9 4.1
4.0 6.3 3.0 5.3 3.0 4.4 5.3 6.0 6.1 6.4 6.8 6.8 6.6 6.4 6.1 5.9 6.0 6.1 6.1 6.4 6.3 6.3 5.0 4.9 5.3 5.7 6.0 6.1 6.4 6.6 6.2 6.5 5.6 5.3 5.2 5.2 5.0 4.7
6.0 7.0 7.5 7.7 7.7 6.8 6.4 6.2 6.2 6.2 6.5 6.4 6.4 6.4 6.0 6.2 6.1 5.9 6.1 6.3 6.5 6.5 6.4 5.7 5.4 5.0 5.4 6.1 6.7 6.3 6.3 6.3 5.9 6.1 5.8 6.0 5.6 5.3
7.6 8.2 8.4 8.2 8.6 8.1 7.9 7.3 7.0 6.3 6.8 6.6 6.3 6.3 6.3 6.0 6.2 6.0 5.9 6.4 6.8 6.6 6.5 6.2 5.9 6.3 6.3 6.5 5.9 6.4 6.1 6.1 6.0 6.2 5.9 6.4 6.3 5.7
8.2 8.7 9.5 9.3 9.0 8.5 8.4 8.2 8.3 7.5 7.3 6.8 6.6 6.6 6.4 6.4 6.4 6.1 6.1 6.3 6.6 6.7 6.6 6.4 6.5 6.4 7.6 8.4 6.7 nan 6.6 6.2 6.6 6.7 6.3 6.3 6.3 6.1
8.5 9.0 9.3 9.5 9.2 8.8 8.8 9.6 9.0 8.2 8.2 8.0 7.3 7.4 7.7 7.5 6.9 6.9 6.5 7.0 6.8 6.8 6.5 6.2 6.0 6.0 6.7 7.4 7.0 7.6 nan 7.0 6.9 7.1 7.1 6.3 6.2 nan
9.0 8.9 8.8 9.0 9.3 9.1 9.4 9.3 9.2 9.2 9.1 8.4 8.1 8.0 7.4 7.1 7.5 6.9 7.1 5.7 5.4 6.8 7.1 7.0 6.8 3.0 6.7 6.9 7.1 7.5 7.8 nan 6.4 6.8 6.9 6.9 7.0 6.9
8.9 8.9 8.6 8.4 9.1 9.7 9.3 8.9 9.0 8.9 9.1 8.9 8.8 8.2 8.0 8.2 8.6 8.8 8.6 8.6 7.4 7.4 7.6 7.2 6.7 6.3 6.5 7.1 7.5 7.3 7.7 7.5 nan nan nan nan 7.2 7.5
9.6 8.8 8.6 8.5 8.1 8.3 8.6 9.2 9.3 8.8 9.2 9.2 9.2 9.1 8.1 9.1 8.5 8.5 7.7 7.7 7.5 7.7 7.4 7.5 7.0 6.8 7.1 7.5 7.4 7.8 8.2 7.5 7.3 7.5 7.9 nan nan nan